This is the latest recevied weather packets stored in our database for station/object DR0T. If no packets are shown the sender has not sent any weather packets the latest 10 day(s).
| Time | Temp. | Humidity | Pressure | Rain* | Wind** | Luminosity | Snow |
|---|---|---|---|---|---|---|---|
| 1777785744 | 15° C | 53% | 1016.9 hPa | 0 mm | - | - | - |
| 1777785446 | 15.56° C | 52% | 1016.7 hPa | 0 mm | - | - | - |
| 1777785140 | 15.56° C | 48% | 1016.7 hPa | 0 mm | - | - | - |
| 1777784841 | 15.56° C | 49% | 1016.6 hPa | 0 mm | - | - | - |
| 1777784537 | 15° C | 50% | 1016.5 hPa | 0 mm | - | - | - |
| 1777784236 | 15° C | 52% | 1016.7 hPa | 0 mm | - | - | - |
| 1777783955 | 15° C | 52% | 1016.6 hPa | 0 mm | - | - | - |
| 1777783653 | 15° C | 52% | 1016.6 hPa | 0 mm | - | - | - |
| 1777783355 | 15.56° C | 52% | 1016.6 hPa | 0 mm | - | - | - |
| 1777783053 | 15.56° C | 50% | 1016.7 hPa | 0 mm | - | - | - |
| 1777782750 | 15.56° C | 49% | 1016.6 hPa | 0 mm | - | - | - |
| 1777782449 | 15° C | 50% | 1016.7 hPa | 0 mm | - | - | - |
| 1777782147 | 15° C | 52% | 1016.6 hPa | 0 mm | - | - | - |
| 1777781853 | 15.56° C | 49% | 1016.6 hPa | 0 mm | - | - | - |
| 1777781545 | 15° C | 49% | 1016.4 hPa | 0 mm | - | - | - |
| 1777781243 | 15° C | 50% | 1016.5 hPa | 0 mm | - | - | - |
| 1777780942 | 15° C | 50% | 1016.5 hPa | 0 mm | - | - | - |
| 1777780643 | 15.56° C | 49% | 1016.5 hPa | 0 mm | - | - | - |
| 1777780340 | 15.56° C | 48% | 1016.6 hPa | 0 mm | - | - | - |
| 1777780039 | 16.11° C | 48% | 1016.5 hPa | 0 mm | - | - | - |
| 1777779737 | 16.11° C | 48% | 1016.7 hPa | 0 mm | - | - | - |
| 1777779436 | 16.11° C | 48% | 1016.7 hPa | 0 mm | - | - | - |
| 1777779159 | 16.11° C | 48% | 1016.6 hPa | 0 mm | - | - | - |
| 1777778854 | 16.11° C | 50% | 1016.6 hPa | 0 mm | - | - | - |
| 1777778552 | 16.11° C | 49% | 1016.6 hPa | 0 mm | - | - | - |
* Rain latest hour (hover to see other rain measurements)
** Current wind speed in m/s (hover to see current wind gust speed)